sat.trackr.live / text

‹ back to catalog

STARLINK-36095

NORAD 66871 · 2025-281Z

PAYLOAD ACTIVE UNKNOWN

§ Identity

Operator
Country
US
Launch date
2025-12-02
Launch site
AFETR
Launch vehicle
Mass (kg)
RCS (m²)

Purposes: comms

External: N2YO · Heavens-Above · Gunter

§ Orbital elements

Epoch: 2026-09-20T20:44:58.088544Z

Period
94.27 min
Inclination
43.0014°
Eccentricity
0.0001255
Mean motion
15.27596013 rev/d
Perigee alt
482.1 km
Apogee alt
483.9 km
Semi-major
6,861.1 km
B*
3.4401e-4
RAAN
321.3432°
Arg perigee
277.3254°
Mean anomaly
82.7455°
Rev number
4,601

§ Raw data

STARLINK-360951 66871U 25281Z   26263.86456121  .00009221  00000+0  34401-3 0  99962 66871  43.0014 321.3432 0001255 277.3254  82.7455 15.27596013 46014

JSON: /api/v1/satellites/66871 · /tle

For live sub-satellite position, see the globe view (requires WebGL).

§ Visibility from observer

Set your observer location to see the next 7 days of passes ≥ 10°. The values pass through the URL so the page stays shareable.

No JS? Fill the form by hand. The geolocation button needs JavaScript.